When you browse on this site, cookies collect data to enhance your experience and personalize the content and advertising you see.
Visit our Privacy Policy to learn more. By continuing to use the site, you agree to this use of cookies and data.
  • In Hungary
  • List of Countries
  • For 7 days
  • Water Temperature
  • Weather Map
  • News
  • Weather Widgets
  • user-avatar
    Login

    Hourly Weather Zrub

    Today, 23 August, Friday

    Time Temperature Precipitation Wind Pressure Humidity
    00:00 +17°C° 0 mm 2 mps 744 mmHg 90%
    01:00 +16°C° 0 mm 2 mps 744 mmHg 92%
    02:00 +16°C° 0 mm 2 mps 744 mmHg 93%
    03:00 +16°C° 0 mm 2 mps 744 mmHg 94%
    04:00 +15°C° 0 mm 2 mps 744 mmHg 95%
    05:00 +15°C° 0 mm 2 mps 744 mmHg 96%
    06:00 +16°C° 0 mm 2 mps 744 mmHg 92%
    07:00 +18°C° 0 mm 3 mps 744 mmHg 88%
    08:00 +19°C° 0 mm 3 mps 745 mmHg 84%
    09:00 +20°C° 0 mm 3 mps 745 mmHg 78%
    10:00 +22°C° 0 mm 3 mps 745 mmHg 71%
    11:00 +24°C° 0 mm 3 mps 745 mmHg 65%
    12:00 +25°C° 0 mm 3 mps 745 mmHg 63%
    13:00 +26°C° 0 mm 3 mps 744 mmHg 61%
    14:00 +26°C° 0 mm 3 mps 744 mmHg 59%
    15:00 +26°C° 0 mm 3 mps 744 mmHg 60%
    16:00 +26°C° 0 mm 3 mps 744 mmHg 61%
    17:00 +26°C° 0 mm 3 mps 744 mmHg 62%
    18:00 +24°C° 0 mm 3 mps 744 mmHg 68%
    19:00 +21°C° 0 mm 3 mps 744 mmHg 73%
    20:00 +20°C° 0 mm 3 mps 744 mmHg 79%
    21:00 +19°C° 0 mm 3 mps 744 mmHg 80%
    22:00 +18°C° 0 mm 3 mps 744 mmHg 81%
    23:00 +18°C° 0 mm 2 mps 744 mmHg 81%

    Tomorrow, 24 August, Saturday

    Time Temperature Precipitation Wind Pressure Humidity
    00:00 +17°C° 0 mm 2 mps 744 mmHg 82%
    01:00 +17°C° 0 mm 2 mps 744 mmHg 83%
    02:00 +16°C° 0 mm 2 mps 743 mmHg 84%
    03:00 +16°C° 0 mm 2 mps 743 mmHg 84%
    04:00 +16°C° 0 mm 2 mps 743 mmHg 84%
    05:00 +15°C° 0 mm 2 mps 743 mmHg 84%
    06:00 +16°C° 0 mm 3 mps 743 mmHg 80%
    07:00 +18°C° 0 mm 3 mps 743 mmHg 77%
    08:00 +19°C° 0 mm 4 mps 743 mmHg 73%
    09:00 +20°C° 0 mm 4 mps 743 mmHg 69%
    10:00 +22°C° 0 mm 4 mps 743 mmHg 64%
    11:00 +25°C° 0 mm 4 mps 743 mmHg 60%
    12:00 +26°C° 0 mm 4 mps 743 mmHg 58%
    13:00 +26°C° 0 mm 4 mps 743 mmHg 56%
    14:00 +27°C° 0 mm 4 mps 743 mmHg 53%
    15:00 +27°C° 0 mm 4 mps 742 mmHg 55%
    16:00 +27°C° 0 mm 4 mps 742 mmHg 56%
    17:00 +26°C° 0 mm 5 mps 742 mmHg 57%
    18:00 +23°C° 0 mm 4 mps 742 mmHg 61%
    19:00 +22°C° 0 mm 4 mps 742 mmHg 65%
    20:00 +20°C° 0 mm 4 mps 742 mmHg 69%
    21:00 +19°C° 0 mm 3 mps 742 mmHg 70%
    22:00 +18°C° 0 mm 3 mps 742 mmHg 70%
    23:00 +17°C° 0 mm 3 mps 742 mmHg 70%

    Day after tomorrow, 25 August, Sunday

    Time Temperature Precipitation Wind Pressure Humidity
    00:00 +17°C° 0 mm 3 mps 742 mmHg 72%
    01:00 +16°C° 0 mm 3 mps 742 mmHg 74%
    02:00 +16°C° 0 mm 3 mps 742 mmHg 76%
    03:00 +14°C° 0 mm 3 mps 742 mmHg 76%
    04:00 +14°C° 0 mm 3 mps 742 mmHg 76%
    05:00 +14°C° 0 mm 3 mps 742 mmHg 76%
    06:00 +16°C° 0 mm 3 mps 742 mmHg 73%
    07:00 +17°C° 0 mm 3 mps 742 mmHg 69%
    08:00 +19°C° 0 mm 4 mps 742 mmHg 66%
    09:00 +20°C° 0 mm 4 mps 742 mmHg 62%
    10:00 +22°C° 0 mm 4 mps 742 mmHg 57%
    11:00 +25°C° 0 mm 4 mps 742 mmHg 53%
    12:00 +26°C° 0 mm 4 mps 742 mmHg 51%
    13:00 +27°C° 0 mm 4 mps 742 mmHg 49%
    14:00 +28°C° 0 mm 4 mps 742 mmHg 48%
    15:00 +27°C° 0 mm 4 mps 741 mmHg 49%
    16:00 +27°C° 0 mm 4 mps 741 mmHg 50%
    17:00 +27°C° 0 mm 4 mps 741 mmHg 52%
    18:00 +25°C° 0 mm 4 mps 741 mmHg 56%
    19:00 +22°C° 0 mm 4 mps 741 mmHg 60%
    20:00 +20°C° 0 mm 4 mps 741 mmHg 64%
    21:00 +19°C° 0 mm 4 mps 741 mmHg 65%
    22:00 +18°C° 0 mm 3 mps 741 mmHg 67%
    23:00 +17°C° 0 mm 3 mps 742 mmHg 69%

    26 August, Monday

    Time Temperature Precipitation Wind Pressure Humidity
    00:00 +17°C° 0 mm 3 mps 742 mmHg 70%
    01:00 +16°C° 0 mm 3 mps 741 mmHg 72%
    02:00 +16°C° 0 mm 3 mps 741 mmHg 74%
    03:00 +14°C° 0 mm 3 mps 741 mmHg 74%
    04:00 +14°C° 0 mm 3 mps 741 mmHg 75%
    05:00 +14°C° 0 mm 3 mps 741 mmHg 75%
    06:00 +16°C° 0 mm 3 mps 741 mmHg 72%
    07:00 +17°C° 0 mm 3 mps 741 mmHg 68%
    08:00 +19°C° 0 mm 4 mps 742 mmHg 64%
    09:00 +21°C° 0 mm 4 mps 742 mmHg 60%
    10:00 +23°C° 0 mm 4 mps 742 mmHg 56%
    11:00 +26°C° 0 mm 5 mps 742 mmHg 51%
    12:00 +27°C° 0 mm 5 mps 742 mmHg 48%
    13:00 +28°C° 0 mm 5 mps 742 mmHg 45%
    14:00 +29°C° 0 mm 5 mps 742 mmHg 42%
    15:00 +29°C° 0 mm 5 mps 741 mmHg 44%
    16:00 +29°C° 0 mm 5 mps 741 mmHg 46%
    17:00 +28°C° 0 mm 4 mps 741 mmHg 48%
    18:00 +26°C° 0 mm 4 mps 741 mmHg 53%
    19:00 +23°C° 0 mm 4 mps 741 mmHg 58%
    20:00 +21°C° 0 mm 4 mps 741 mmHg 63%
    21:00 +20°C° 0 mm 4 mps 741 mmHg 64%
    22:00 +19°C° 0 mm 3 mps 741 mmHg 66%
    23:00 +18°C° 0 mm 3 mps 742 mmHg 67%

    27 August, Tuesday

    Time Temperature Precipitation Wind Pressure Humidity
    00:00 +18°C° 0 mm 3 mps 741 mmHg 70%
    01:00 +17°C° 0 mm 3 mps 741 mmHg 73%
    02:00 +17°C° 0 mm 3 mps 741 mmHg 75%
    03:00 +16°C° 0 mm 3 mps 741 mmHg 78%
    04:00 +16°C° 0 mm 2 mps 741 mmHg 80%
    05:00 +15°C° 0 mm 2 mps 741 mmHg 82%
    06:00 +17°C° 0 mm 2 mps 741 mmHg 76%
    07:00 +18°C° 0 mm 3 mps 741 mmHg 70%
    08:00 +20°C° 0 mm 3 mps 741 mmHg 65%
    09:00 +22°C° 0 mm 3 mps 742 mmHg 59%
    10:00 +25°C° 0 mm 3 mps 742 mmHg 53%
    11:00 +28°C° 0 mm 4 mps 742 mmHg 47%
    12:00 +29°C° 0 mm 4 mps 742 mmHg 43%
    13:00 +30°C° 0 mm 4 mps 741 mmHg 39%
    14:00 +32°C° 0 mm 4 mps 741 mmHg 35%
    15:00 +32°C° 0 mm 4 mps 741 mmHg 38%
    16:00 +32°C° 0 mm 4 mps 741 mmHg 41%
    17:00 +30°C° 0 mm 4 mps 741 mmHg 44%
    18:00 +28°C° 0 mm 4 mps 741 mmHg 49%
    19:00 +26°C° 0 mm 4 mps 741 mmHg 54%
    20:00 +22°C° 0 mm 4 mps 741 mmHg 58%
    21:00 +21°C° 0 mm 4 mps 741 mmHg 59%
    22:00 +21°C° 0 mm 4 mps 741 mmHg 60%
    23:00 +20°C° 0 mm 3 mps 741 mmHg 61%

    28 August, Wednesday

    Time Temperature Precipitation Wind Pressure Humidity
    00:00 +19°C° 0 mm 3 mps 741 mmHg 62%
    01:00 +18°C° 0 mm 3 mps 741 mmHg 63%
    02:00 +18°C° 0 mm 3 mps 741 mmHg 64%
    03:00 +17°C° 0 mm 3 mps 741 mmHg 65%
    04:00 +17°C° 0 mm 3 mps 741 mmHg 66%
    05:00 +16°C° 0 mm 2 mps 740 mmHg 67%
    06:00 +17°C° 0 mm 3 mps 740 mmHg 65%
    07:00 +19°C° 0 mm 3 mps 741 mmHg 62%
    08:00 +20°C° 0 mm 3 mps 741 mmHg 60%
    09:00 +22°C° 0 mm 3 mps 741 mmHg 55%
    10:00 +26°C° 0 mm 3 mps 741 mmHg 50%
    11:00 +28°C° 0 mm 3 mps 741 mmHg 45%
    12:00 +29°C° 0 mm 3 mps 741 mmHg 42%
    13:00 +30°C° 0 mm 2 mps 740 mmHg 39%
    14:00 +32°C° 0 mm 2 mps 740 mmHg 35%
    15:00 +31°C° 0 mm 2 mps 740 mmHg 38%
    16:00 +31°C° 0 mm 1 mps 740 mmHg 41%
    17:00 +31°C° 0 mm 1 mps 739 mmHg 45%
    18:00 +29°C° 0 mm 1 mps 739 mmHg 47%
    19:00 +27°C° 0 mm 2 mps 739 mmHg 49%
    20:00 +25°C° 0 mm 2 mps 739 mmHg 51%
    21:00 +24°C° 0 mm 2 mps 739 mmHg 50%
    22:00 +24°C° 0 mm 2 mps 740 mmHg 50%
    23:00 +23°C° 0 mm 2 mps 740 mmHg 49%
    Show more